Weather in Zolotoy

Russia / Khabarovsk Krai     48°03′42″N   136°23′35″E
temp.,
°C
wind,
m/s
gust,
m/s
humid.,
%
clouds,
%
prec.,
mm/h
press.,
hPa
HPBL,
m
27 february, sat
sat2701:00−22s229789 0.0 103520
04:00−22sse229691 0.0 103534
07:00−23sse229520 0.0 103625
10:00−17sse239010 0.0 1035136
13:00−10ssw228133 0.0 1032466
16:00−9s238267 0.0 1028418
19:00−12sse239298 0.0 102759
22:00−10se248999 0.0 102499
28 february, sun
sun2801:00−7s31578100 0.0 1021568
04:00−7ssw41692100 0.3 1019754
07:00−7ssw41595100 2.3 1018807
10:00−5sw41292100 3.5 1017834
13:00−4w61194100 1.2 1017989
16:00−7w51186100 1.3 1018805
19:00−12w3792100 0.0 1022458
22:00−15sw2697100 0.1 1024276
1 march, mon
mon101:00−17sw2497100 0.1 1025106
04:00−20wsw24100100 0.2 1027130
07:00−23ssw249999 0.1 102975
10:00−20sw4108872 0.1 1030634
13:00−17w59780 0.0 1030921
16:00−18w588420 0.0 10301021
19:00−21sw31092100 0.0 1032332
22:00−23ssw378995 0.0 1033148
2 march, tue
tue201:00−25s339324 0.0 103359
04:00−25s239447 0.0 103346
07:00−24s2398100 0.1 103449
10:00−19sw1392100 0.1 1032400
13:00−17wnw348067 0.0 1030828
16:00−17wnw358233 0.0 1029811
19:00−24nw119960 0.0 103120
22:00−25se119330 0.0 103320
3 march, wed
wed301:00−26se11890 0.0 103219
04:00−26se22890 0.0 103120
07:00−26se22890 0.0 103123
10:00−19se22850 0.0 1030175
13:00−12sse23730 0.0 1026527
16:00−10s257417 0.0 1022518
19:00−13sse2290100 0.0 102159
22:00−12s31189100 0.0 1020550